Regional Weather Roundup
Issued by NWS

Home | Current Version | Previous Version | Text Only | Print | Product List | Glossary Off
Versions: 1 2 3 4 5 6 7 8 9 10 11 12 13 14 15 16 17 18 19 20 21 22 23 24 25 26 27 28 29 30 31 32 33 34 35 36 37 38 39 40 41 42 43 44 45 46 47 48 49 50

000
ASUS45 KABQ 291910
RWRNM
NEW MEXICO REGIONAL WEATHER ROUNDUP
NATIONAL WEATHER SERVICE ALBUQUERQUE NM
100 PM MDT SUN MAY 29 2016

NOTE: "FAIR" MEANS FEW OR NO CLOUDS BELOW 12,000 FEET AGL WITH NO
       SIGNIFICANT WEATHER OR OBSTRUCTIONS TO VISION.

      THIS PRODUCT IS RELEASED AS TWO VERSIONS.  ONE VERSION NEAR
      THE TOP OF THE HOUR CONTAINING PRELIMINARY DATA FROM ALBUQUERQUE
      AND OTHER STATIONS.  A FINAL VERSION WITH ADDITIONAL DATA IS
      ISSUED ABOUT 10 MINUTES AFTER THE HOUR.

NMZ501-503-504-510>518-292000-
NORTHWEST PLATEAU/NORTHCENTRAL MOUNTAINS

CITY           SKY/WX    TMP DP  RH WIND       PRES   REMARKS
FARMINGTON     FAIR      81  21  11 VRB3      30.10F
LOS ALAMOS     FAIR      74  12   9 S12G21    30.25F
SANTA FE       FAIR      80  11   7 MISG      30.19F
TAOS           FAIR      73  16  11 S14G22    30.23F
ANGEL FIRE     PTSUNNY   58  25  28 CALM      30.35S

$$
NMZ402-403-502-505>509-292000-
WESTCENTRAL MOUNTAINS/SOUTHWEST MOUNTAINS

CITY           SKY/WX    TMP DP  RH WIND       PRES   REMARKS
GALLUP         FAIR      76  21  12 W7        30.19F
GRANTS         FAIR      77  12   8 SE6G16    30.20F

$$
NMZ407-409-411-412-292000-
SOUTHERN DESERTS

CITY           SKY/WX    TMP DP  RH WIND       PRES   REMARKS
LORDSBURG      FAIR      86  23  10 S10G25    30.09F
DEMING         FAIR      88  23   9 S12G20    30.10F
LAS CRUCES     FAIR      86  22   9 SW8       30.12F
HOLLOMAN AFB   FAIR      87  16   7 W2        30.08F
ALAMOGORDO     FAIR      86  19   8 NW6       30.10F
T OR C         FAIR      84  19   9 S9G25     30.10F

$$
NMZ519>523-292000-
CENTRAL VALLEYS/CENTRAL HIGHLANDS

CITY           SKY/WX    TMP DP  RH WIND       PRES   REMARKS
ALBUQUERQUE    FAIR      80  12   7 SW13      30.15F
DOUBLE EAGLE   MOSUNNY   81  16   9 S12G17    30.18F
MORIARTY ARPT  FAIR      80  13   8 SE13G20   30.20F
CLINES CORNERS FAIR      76  17  11 MISG      30.24F
BELEN          FAIR      84  13   7 S17G23    30.12F
SOCORRO        FAIR      86  17   7 S13G20    30.11F

$$
NMZ524>526-539-540-292000-
SOUTHCENTRAL MOUNTAINS

CITY           SKY/WX    TMP DP  RH WIND       PRES   REMARKS
RUIDOSO        NOT AVBL

$$
NMZ527>531-292000-
NORTHEAST HIGHLANDS/NORTHEAST PLAINS

CITY           SKY/WX    TMP DP  RH WIND       PRES   REMARKS
LAS VEGAS      FAIR      72  41  32 S21       30.26F
RATON          FAIR      70  41  34 S13       30.21F
CLAYTON        FAIR      80  54  40 S16G25    30.16F

$$
NMZ532>537-292000-
EASTCENTRAL PLAINS

CITY           SKY/WX    TMP DP  RH WIND       PRES   REMARKS
TUCUMCARI      FAIR      65  58  78 NE14      30.08F
CANNON AFB     PTSUNNY   79  60  52 S16       30.14F
CLOVIS AIRPORT FAIR      81  57  44 S18       30.14F

$$
NMZ028-029-538-292000-
SOUTHEAST PLAINS

CITY           SKY/WX    TMP DP  RH WIND       PRES   REMARKS
ROSWELL        FAIR      84  56  38 SE10      30.08F
ARTESIA        FAIR      86  55  35 SE9G18    30.08F
CARLSBAD       FAIR      85  60  42 SE12G21   30.06F
HOBBS          MOSUNNY   77  63  61 SE16      30.14F


$$




USA.gov is the U.S. government's official web portal to all federal, state and local government web resources and services.